F8KHU-13 Weather Reports


time (UTC)temp
C
wind
direction
speed
KPH
gust
KPH
rain 1hr
cm
rain 24hr
cm
rain mn
cm
humidity
%
barometer
mb
20260507115536 19 104 4.8 12.9 0.00 0.00 0.00 28 1018.1
20260507115516 19 104 6.4 12.9 0.00 0.00 0.00 28 1018.0
20260507115456 19 105 3.2 12.9 0.00 0.00 0.00 28 1018.1
20260507114036 19 128 1.6 8.0 0.00 0.00 0.00 28 1018.1
20260507114016 19 128 1.6 8.0 0.00 0.00 0.00 28 1018.0
20260507113956 19 129 1.6 8.0 0.00 0.00 0.00 28 1018.1
20260507112536 18 117 1.6 8.0 0.00 0.00 0.00 28 1018.0
20260507112516 18 116 0.0 8.0 0.00 0.00 0.00 28 1018.0
20260507112456 18 115 1.6 8.0 0.00 0.00 0.00 28 1018.0
20260507111016 18 140 0.0 6.4 0.00 0.00 0.00 28 1018.1
20260507110956 18 143 1.6 6.4 0.00 0.00 0.00 28 1018.1
20260507105536 17 135 0.0 8.0 0.00 0.00 0.00 29 1018.2
20260507105516 17 136 1.6 8.0 0.00 0.00 0.00 29 1018.2
20260507105456 17 135 0.0 8.0 0.00 0.00 0.00 29 1018.2
20260507104036 16 119 0.0 8.0 0.00 0.00 0.00 29 1018.1
20260507104017 16 121 1.6 8.0 0.00 0.00 0.00 29 1018.2
20260507103956 16 120 1.6 8.0 0.00 0.00 0.00 29 1018.2
20260507102536 16 133 1.6 11.3 0.00 0.00 0.00 29 1018.2
20260507102517 16 132 1.6 11.3 0.00 0.00 0.00 29 1018.2
20260507102456 16 133 3.2 11.3 0.00 0.00 0.00 29 1018.2
20260507101037 16 117 1.6 11.3 0.00 0.00 0.00 29 1018.1
20260507101017 16 116 4.8 11.3 0.00 0.00 0.00 29 1018.2
20260507100957 16 113 0.0 11.3 0.00 0.00 0.00 29 1018.2
20260507095537 16 135 0.0 8.0 0.00 0.00 0.00 29 1018.1
20260507095457 16 135 1.6 8.0 0.00 0.00 0.00 29 1018.1
20260507094037 16 125 4.8 8.0 0.00 0.00 0.00 29 1018.1
20260507094017 16 125 3.2 8.0 0.00 0.00 0.00 29 1018.1
20260507093957 16 125 4.8 8.0 0.00 0.00 0.00 29 1018.0
20260507092537 16 124 1.6 8.0 0.00 0.00 0.00 29 1018.0
20260507092517 16 125 0.0 8.0 0.00 0.00 0.00 29 1018.0
20260507092457 16 126 1.6 8.0 0.00 0.00 0.00 29 1018.0
20260507091037 16 132 1.6 6.4 0.00 0.00 0.00 29 1017.9
20260507091017 16 132 0.0 6.4 0.00 0.00 0.00 29 1017.9
20260507090957 16 131 0.0 6.4 0.00 0.00 0.00 29 1017.9
20260507085537 15 130 0.0 11.3 0.00 0.00 0.00 30 1017.8
20260507085517 15 131 0.0 11.3 0.00 0.00 0.00 30 1017.8
20260507085457 15 133 0.0 11.3 0.00 0.00 0.00 30 1017.8
20260507084037 14 141 0.0 8.0 0.00 0.00 0.00 30 1017.7
20260507084017 14 140 0.0 8.0 0.00 0.00 0.00 30 1017.8
20260507083957 14 141 0.0 8.0 0.00 0.00 0.00 30 1017.8
20260507082538 13 148 0.0 3.2 0.00 0.00 0.00 30 1017.7
20260507082518 13 147 0.0 3.2 0.00 0.00 0.00 30 1017.7
20260507082458 13 146 1.6 3.2 0.00 0.00 0.00 30 1017.8
20260507081038 13 107 0.0 8.0 0.00 0.00 0.00 31 1017.6
20260507080958 13 104 0.0 8.0 0.00 0.00 0.00 31 1017.6
20260507075538 12 102 0.0 8.0 0.00 0.00 0.00 31 1017.5
20260507075518 12 99 0.0 8.0 0.00 0.00 0.00 31 1017.5
20260507075458 12 96 0.0 8.0 0.00 0.00 0.00 31 1017.5
20260507074038 12 113 0.0 3.2 0.00 0.00 0.00 31 1017.4
20260507074018 12 112 0.0 3.2 0.00 0.00 0.00 31 1017.5
20260507073958 12 114 0.0 3.2 0.00 0.00 0.00 31 1017.5
20260507072538 11 84 0.0 6.4 0.00 0.00 0.00 31 1017.4
20260507072518 11 84 1.6 6.4 0.00 0.00 0.00 31 1017.3
20260507072458 11 83 0.0 6.4 0.00 0.00 0.00 31 1017.4
20260507071033 11 88 1.6 6.4 0.00 0.00 0.00 32 1017.3
20260507071013 11 88 3.2 6.4 0.00 0.00 0.00 32 1017.3
20260507070953 11 88 1.6 3.2 0.00 0.00 0.00 32 1017.3
20260507065536 11 142 0.0 1.6 0.00 0.00 0.00 33 1017.3
20260507065516 11 143 0.0 1.6 0.00 0.00 0.00 33 1017.2
20260507065455 11 145 0.0 1.6 0.00 0.00 0.00 33 1017.2
20260507064036 10 102 0.0 6.4 0.00 0.00 0.00 33 1017.1
20260507064016 10 103 0.0 6.4 0.00 0.00 0.00 33 1017.2
20260507063956 10 102 0.0 6.4 0.00 0.00 0.00 33 1017.1
20260507062536 10 75 0.0 1.6 0.00 0.00 0.00 33 1017.1
20260507062516 10 74 0.0 1.6 0.00 0.00 0.00 33 1017.0
20260507062456 10 75 0.0 1.6 0.00 0.00 0.00 33 1017.0
20260507061036 9 109 0.0 1.6 0.00 0.00 0.00 33 1016.9
20260507060956 9 110 0.0 1.6 0.00 0.00 0.00 33 1016.9
20260507055536 8 79 0.0 1.6 0.00 0.00 0.00 33 1016.8
20260507055517 8 78 0.0 1.6 0.00 0.00 0.00 33 1016.8
20260507055456 8 77 0.0 1.6 0.00 0.00 0.00 33 1016.8
20260507054016 8 49 0.0 1.6 0.00 0.00 0.00 35 1016.6
20260507053956 8 49 0.0 1.6 0.00 0.00 0.00 35 1016.5
20260507052536 8 24 0.0 1.6 0.00 0.00 0.00 35 1016.3
20260507052516 8 23 0.0 1.6 0.00 0.00 0.00 35 1016.4
20260507052456 8 22 0.0 1.6 0.00 0.00 0.00 35 1016.4
20260507051036 8 45 0.0 1.6 0.00 0.00 0.00 35 1016.3
20260507050956 8 45 0.0 1.6 0.00 0.00 0.00 35 1016.3
20260507045516 7 69 0.0 1.6 0.00 0.05 0.00 35 1016.2
20260507045456 7 70 0.0 1.6 0.00 0.05 0.00 36 1016.2
20260507044037 7 87 0.0 3.2 0.00 0.05 0.00 35 1016.0
20260507043957 7 87 0.0 3.2 0.00 0.05 0.00 35 1016.0
20260507042537 7 52 0.0 1.6 0.00 0.05 0.00 35 1015.9
20260507042457 7 49 0.0 1.6 0.00 0.05 0.00 35 1015.9
20260507041037 7 61 0.0 1.6 0.00 0.05 0.00 34 1015.9
20260507040957 7 62 0.0 1.6 0.00 0.05 0.00 34 1015.9
20260507035537 7 78 0.0 3.2 0.00 0.05 0.00 34 1015.7
20260507035457 7 77 0.0 3.2 0.00 0.05 0.00 34 1015.8
20260507034037 7 95 0.0 3.2 0.00 0.05 0.00 34 1015.7
20260507034017 7 94 1.6 3.2 0.00 0.05 0.00 34 1015.8
20260507033957 7 93 1.6 3.2 0.00 0.05 0.00 34 1015.8
20260507032538 7 60 0.0 1.6 0.00 0.05 0.00 34 1015.7
20260507032457 7 60 0.0 1.6 0.00 0.05 0.00 34 1015.7
20260507031038 7 41 0.0 1.6 0.00 0.05 0.00 34 1015.6
20260507031018 7 40 0.0 1.6 0.00 0.05 0.00 34 1015.6
20260507030958 7 39 0.0 1.6 0.00 0.05 0.00 34 1015.6
20260507025518 7 58 0.0 3.2 0.00 0.05 0.00 34 1015.5
20260507025458 7 60 0.0 3.2 0.00 0.05 0.00 34 1015.5
20260507024038 7 89 0.0 3.2 0.00 0.05 0.00 34 1015.5
20260507024018 7 89 0.0 3.2 0.00 0.05 0.00 34 1015.6
20260507023958 7 89 0.0 3.2 0.00 0.05 0.00 34 1015.5
20260507022538 7 86 0.0 3.2 0.00 0.05 0.00 34 1015.5
20260507022458 7 86 0.0 3.2 0.00 0.05 0.00 34 1015.5
20260507021038 6 55 0.0 3.2 0.00 0.05 0.00 34 1015.4
20260507020958 6 55 0.0 3.2 0.00 0.05 0.00 34 1015.3
20260507015513 6 82 0.0 3.2 0.00 0.15 0.00 34 1015.2
20260507015453 6 83 0.0 3.2 0.00 0.15 0.00 34 1015.2
20260507014033 6 48 0.0 1.6 0.00 0.15 0.00 34 1015.1
20260507014014 6 48 0.0 1.6 0.00 0.15 0.00 34 1015.2
20260507013954 6 49 0.0 1.6 0.00 0.15 0.00 34 1015.1
20260507012513 6 76 0.0 1.6 0.00 0.15 0.00 34 1015.1
20260507012454 6 77 0.0 1.6 0.00 0.15 0.00 34 1015.1
20260507011014 7 39 0.0 1.6 0.00 0.15 0.00 34 1015.1
20260507010954 7 38 0.0 1.6 0.00 0.15 0.00 34 1015.1
20260507005534 7 86 0.0 1.6 0.00 0.20 0.00 34 1015.1
20260507005514 7 86 0.0 1.6 0.00 0.20 0.00 34 1015.0
20260507005454 7 87 0.0 1.6 0.00 0.20 0.00 34 1015.1
20260507004035 7 87 0.0 1.6 0.00 0.20 0.00 34 1015.1
20260507004014 7 87 0.0 1.6 0.00 0.20 0.00 34 1015.0
20260507003954 7 90 0.0 1.6 0.00 0.20 0.00 34 1015.0
20260507002534 7 62 0.0 1.6 0.00 0.20 0.00 34 1015.0
20260507002454 7 62 0.0 1.6 0.00 0.20 0.00 34 1015.0
20260507001034 7 61 0.0 1.6 0.00 0.20 0.00 34 1015.0
20260507001014 7 62 0.0 1.6 0.00 0.20 0.00 34 1015.0
20260507000954 7 62 0.0 1.6 0.00 0.20 0.00 34 1015.1
20260506235535 7 42 0.0 1.6 0.00 0.33 0.00 34 1014.8
20260506235514 7 41 0.0 1.6 0.00 0.33 0.00 34 1014.9
20260506235454 7 40 0.0 1.6 0.00 0.33 0.00 34 1014.9
20260506234015 7 23 0.0 1.6 0.00 0.33 0.00 34 1014.9
20260506233955 7 22 0.0 1.6 0.00 0.33 0.00 33 1014.8
20260506232515 8 63 0.0 1.6 0.00 0.33 0.00 33 1014.7
20260506232455 8 63 0.0 1.6 0.00 0.33 0.00 33 1014.8
20260506231035 8 54 0.0 3.2 0.00 0.33 0.00 33 1014.7
20260506230955 8 54 0.0 3.2 0.00 0.33 0.00 33 1014.7
20260506225535 8 177 0.0 1.6 0.00 0.43 0.43 32 1014.6
20260506225515 8 180 0.0 1.6 0.00 0.43 0.43 32 1014.7
20260506225455 8 183 0.0 1.6 0.00 0.43 0.43 32 1014.6
20260506224035 9 167 0.0 1.6 0.00 0.43 0.43 32 1014.5
20260506224015 9 164 0.0 1.6 0.00 0.43 0.43 32 1014.5
20260506223955 9 162 0.0 1.6 0.00 0.43 0.43 32 1014.4
20260506222535 9 166 0.0 3.2 0.00 0.43 0.43 32 1014.3
20260506222515 9 164 0.0 3.2 0.00 0.43 0.43 32 1014.2
20260506222455 9 161 0.0 3.2 0.00 0.43 0.43 32 1014.3
20260506221035 9 139 0.0 6.4 0.00 0.43 0.43 32 1014.3
20260506221015 9 137 0.0 6.4 0.00 0.43 0.43 32 1014.2
20260506220955 10 138 0.0 6.4 0.00 0.43 0.43 32 1014.2
20260506215536 10 135 0.0 6.4 0.00 0.56 0.43 31 1014.1
20260506215515 10 134 0.0 6.4 0.00 0.56 0.43 31 1014.1
20260506215455 10 134 0.0 6.4 0.00 0.56 0.43 31 1014.2
20260506214035 11 128 0.0 11.3 0.00 0.56 0.43 31 1014.2
20260506214016 11 129 0.0 11.3 0.00 0.56 0.43 31 1014.1
20260506213955 11 128 0.0 11.3 0.00 0.56 0.43 31 1014.1
20260506212536 11 137 6.4 8.0 0.00 0.56 0.43 31 1014.1
20260506212516 11 136 1.6 6.4 0.00 0.56 0.43 31 1014.1
20260506212456 11 137 0.0 6.4 0.00 0.56 0.43 31 1014.1
20260506211036 11 131 1.6 6.4 0.00 0.56 0.43 31 1013.9
20260506211016 11 132 1.6 6.4 0.00 0.56 0.43 31 1013.9
20260506210956 11 133 1.6 6.4 0.00 0.56 0.43 31 1013.9
20260506205536 11 114 0.0 6.4 0.00 0.56 0.43 31 1013.8
20260506205516 11 112 0.0 6.4 0.00 0.56 0.43 31 1013.8
20260506205456 11 111 0.0 6.4 0.00 0.56 0.43 31 1013.7
20260506204036 11 113 0.0 8.0 0.00 0.56 0.43 31 1013.6
20260506204016 11 113 1.6 8.0 0.00 0.56 0.43 31 1013.6
20260506203956 11 113 0.0 8.0 0.00 0.56 0.43 31 1013.7
20260506202516 11 102 1.6 6.4 0.00 0.56 0.43 32 1013.6
20260506202456 11 102 0.0 6.4 0.00 0.56 0.43 32 1013.5
20260506201037 11 103 1.6 6.4 0.00 0.56 0.43 32 1013.4
20260506201016 11 103 1.6 6.4 0.00 0.56 0.43 32 1013.3
20260506200956 11 104 1.6 6.4 0.00 0.56 0.43 32 1013.4
20260506195536 11 108 1.6 6.4 0.00 0.56 0.43 32 1013.2
20260506195516 11 108 0.0 6.4 0.00 0.56 0.43 32 1013.2
20260506195456 11 109 0.0 6.4 0.00 0.56 0.43 32 1013.2
20260506194037 12 103 1.6 6.4 0.00 0.56 0.43 31 1013.1
20260506194017 12 103 0.0 6.4 0.00 0.56 0.43 31 1013.1
20260506193956 12 103 1.6 6.4 0.00 0.56 0.43 31 1013.1
20260506192537 12 109 0.0 6.4 0.00 0.56 0.43 32 1013.0
20260506192517 12 107 1.6 6.4 0.00 0.56 0.43 32 1013.0
20260506192457 12 107 0.0 6.4 0.00 0.56 0.43 32 1013.0
20260506191037 12 104 0.0 6.4 0.00 0.56 0.43 32 1012.8
20260506191017 12 104 0.0 6.4 0.00 0.56 0.43 31 1012.8
20260506190957 12 104 1.6 6.4 0.00 0.56 0.43 31 1012.7
20260506185537 12 96 1.6 8.0 0.00 0.61 0.43 31 1012.6
20260506185517 12 96 0.0 8.0 0.00 0.61 0.43 31 1012.7
20260506185457 12 96 0.0 8.0 0.00 0.61 0.43 31 1012.6
20260506184037 12 95 1.6 6.4 0.00 0.61 0.43 32 1012.5
20260506184017 12 95 1.6 6.4 0.00 0.61 0.43 31 1012.5
20260506183957 12 96 0.0 6.4 0.00 0.61 0.43 31 1012.5
20260506182517 12 92 1.6 6.4 0.00 0.61 0.43 31 1012.4
20260506182457 12 92 1.6 6.4 0.00 0.61 0.43 31 1012.5
20260506181037 12 93 1.6 8.0 0.00 0.61 0.43 31 1012.2
20260506181018 12 94 1.6 8.0 0.00 0.61 0.43 31 1012.3
20260506180957 12 94 1.6 8.0 0.00 0.61 0.43 31 1012.2
20260506175538 12 95 0.0 8.0 0.00 0.61 0.43 31 1012.1
20260506175518 12 95 1.6 8.0 0.00 0.61 0.43 31 1012.1
20260506175458 12 96 3.2 8.0 0.00 0.61 0.43 30 1012.1
20260506174038 13 103 1.6 12.9 0.00 0.61 0.43 30 1011.9
20260506174018 13 103 4.8 12.9 0.00 0.61 0.43 30 1012.0
20260506173958 13 103 8.0 12.9 0.00 0.61 0.43 30 1011.9
20260506172538 13 94 8.0 14.5 0.00 0.61 0.43 30 1011.8
20260506172518 13 94 3.2 14.5 0.00 0.61 0.43 30 1011.7
20260506172458 13 94 6.4 14.5 0.00 0.61 0.43 30 1011.8
20260506171038 13 97 11.3 17.7 0.00 0.61 0.43 30 1011.6
20260506171018 13 96 3.2 17.7 0.00 0.61 0.43 30 1011.7
20260506170958 13 97 1.6 17.7 0.00 0.61 0.43 30 1011.7
20260506165533 13 94 11.3 17.7 0.00 0.61 0.43 30 1011.6
20260506165513 14 94 1.6 17.7 0.00 0.61 0.43 30 1011.6
20260506165453 14 93 3.2 17.7 0.00 0.61 0.43 30 1011.6
20260506164033 13 101 6.4 17.7 0.00 0.61 0.43 30 1011.5
20260506164013 13 101 8.0 17.7 0.00 0.61 0.43 30 1011.5
20260506163953 13 102 8.0 17.7 0.00 0.61 0.43 30 1011.5
20260506162534 13 93 6.4 17.7 0.00 0.61 0.43 30 1011.5
20260506162513 13 93 9.7 17.7 0.00 0.61 0.43 30 1011.4
20260506162453 13 93 6.4 17.7 0.00 0.61 0.43 30 1011.3
20260506161033 13 96 6.4 12.9 0.00 0.61 0.43 30 1011.5
20260506161013 13 96 6.4 12.9 0.00 0.61 0.43 30 1011.4
20260506160954 13 96 4.8 12.9 0.00 0.61 0.43 30 1011.5
20260506155534 13 93 11.3 14.5 0.00 0.66 0.43 30 1011.5
20260506155514 13 93 11.3 14.5 0.00 0.66 0.43 30 1011.4
20260506155454 13 93 11.3 14.5 0.00 0.66 0.43 30 1011.5
20260506154034 13 93 12.9 20.9 0.00 0.66 0.43 30 1011.4
20260506154014 13 93 8.0 20.9 0.00 0.66 0.43 30 1011.4
20260506153954 13 93 6.4 20.9 0.00 0.66 0.43 30 1011.5
20260506152534 13 93 12.9 20.9 0.00 0.66 0.43 30 1011.4
20260506152454 13 93 8.0 20.9 0.00 0.66 0.43 30 1011.4
20260506151034 15 93 8.0 12.9 0.00 0.66 0.43 30 1011.5
20260506151014 15 93 9.7 12.9 0.00 0.66 0.43 30 1011.5
20260506150954 15 93 6.4 12.9 0.00 0.66 0.43 30 1011.5
20260506145534 14 87 3.2 11.3 0.00 0.66 0.43 30 1011.4
20260506145514 14 87 4.8 11.3 0.00 0.66 0.43 30 1011.5
20260506145454 14 87 4.8 11.3 0.00 0.66 0.43 30 1011.4
20260506144106 14 90 6.4 11.3 0.00 0.66 0.43 30 1011.4
20260506144034 14 90 6.4 11.3 0.00 0.66 0.43 30 1011.4
20260506144014 14 90 1.6 11.3 0.00 0.66 0.43 30 1011.5
20260506143954 14 90 6.4 11.3 0.00 0.66 0.43 30 1011.4
20260506142535 15 92 6.4 14.5 0.00 0.66 0.43 29 1011.4
20260506142514 15 92 3.2 14.5 0.00 0.66 0.43 30 1011.3
20260506142454 15 92 4.8 14.5 0.00 0.66 0.43 29 1011.3
20260506141035 15 94 6.4 12.9 0.00 0.66 0.43 30 1011.4
20260506140955 15 94 6.4 12.9 0.00 0.66 0.43 30 1011.4
20260506135535 14 93 4.8 14.5 0.00 0.66 0.43 30 1011.6
20260506135515 14 93 6.4 14.5 0.00 0.66 0.43 30 1011.6
20260506135455 14 93 8.0 14.5 0.00 0.66 0.43 30 1011.6
20260506134015 14 100 4.8 11.3 0.00 0.66 0.43 30 1011.4
20260506133955 14 101 4.8 11.3 0.00 0.66 0.43 30 1011.5
20260506132535 13 92 4.8 11.3 0.00 0.66 0.43 31 1011.5
20260506132515 13 93 1.6 11.3 0.00 0.66 0.43 32 1011.5
20260506132455 13 92 1.6 11.3 0.00 0.66 0.43 31 1011.5
20260506131035 12 103 3.2 11.3 0.00 0.66 0.43 32 1011.5
20260506131015 12 103 4.8 11.3 0.00 0.66 0.43 32 1011.5
20260506130955 12 103 3.2 11.3 0.00 0.66 0.43 32 1011.5
20260506125535 13 103 4.8 12.9 0.00 0.66 0.43 31 1011.4
20260506125455 13 104 4.8 12.9 0.00 0.66 0.43 31 1011.4
20260506124035 13 117 3.2 14.5 0.00 0.66 0.43 30 1011.4
20260506124015 13 117 4.8 14.5 0.00 0.66 0.43 30 1011.3
20260506123955 13 117 6.4 14.5 0.00 0.66 0.43 30 1011.3
20260506122536 14 127 4.8 14.5 0.00 0.66 0.43 30 1011.3
20260506122516 14 128 6.4 14.5 0.00 0.66 0.43 30 1011.2
20260506122455 14 129 4.8 14.5 0.00 0.66 0.43 30 1011.2
20260506121036 12 120 1.6 11.3 0.00 0.66 0.43 32 1011.2
20260506121016 12 121 3.2 11.3 0.00 0.66 0.43 32 1011.2
20260506120956 12 121 1.6 11.3 0.00 0.66 0.43 32 1011.3